Asheville, NC

11:27 PM EST on February 23, 2018 (GMT -0500)
Asheville Regional

Weather History for KAVL - September, 2008

Change the Weather History Date:

Saturday, September 20, 2008

  Actual Average Record
Temperature  
Mean Temperature 63 °F 65 °F  
Max Temperature 72 °F 76 °F 93 °F (1925)
Min Temperature 54 °F 54 °F 36 °F (1889)
Degree Days  
Heating Degree Days 2 2  
Month to date heating degree days 9 17  
Since 1 July heating degree days 10 19  
Cooling Degree Days 0 2  
Month to date cooling degree days 98 80  
Year to date cooling degree days 867 837  
Growing Degree Days 13 (Base 50)    
Moisture  
Dew Point 54 °F    
Average Humidity 75    
Maximum Humidity 100    
Minimum Humidity 49    
Precipitation  
Precipitation 0.00 in 0.12 in 3.27 in (2009)
Month to date precipitation 1.20 2.62  
Year to date precipitation 26.94 34.23  
Snow  
Snow 0.00 in 0.00 in 0.00 in ()
Month to date snowfall 0.0 0.0  
Since 1 July snowfall 0.0 0.0  
Since 1 September snowfall 0.0 0.0  
Snow Depth -    
Sea Level Pressure  
Sea Level Pressure 30.24 in    
Wind  
Wind Speed 3 mph (SSE)    
Max Wind Speed 12 mph    
Max Gust Speed 16 mph    
Visibility 9 miles    
Events      
T = Trace of Precipitation, MM = Missing Value Source: NWS Daily Summary

Daily Weather History Graph

Daily Weather History Graph

Search for Another Location

Airport or City:

Trip Planner

Search our weather history database for the weather conditions in past years. The results will help you decide how hot, cold, wet, or windy it might be!

Date:

Astronomy

Sep. 20, 2008 Rise Set
Actual Time 7:16 AM EDT 7:29 PM EDT
Civil Twilight 6:51 AM EDT 7:54 PM EDT
Nautical Twilight 6:21 AM EDT 8:24 PM EDT
Astronomical Twilight 5:51 AM EDT 8:54 PM EDT
Moon 10:52 PM EDT (9/20) 1:14 PM EDT (9/20)
Length of Visible Light 13h 03m
Length of Day
12h 12m
Waning Gibbous, 68% of the Moon is Illuminated
Sep 20
Waning Gibbous
Sep 22
Last Quarter
Sep 29
New
Oct 7
First Quarter
Oct 14
Full

Hourly Weather History & Observations

Time (EDT) Temp. Dew Point Humidity Pressure Visibility Wind Dir Wind Speed Gust Speed Precip Events Conditions
12:54 AM 55.9 °F 55.0 °F 97% 30.27 in 5.0 mi Calm Calm - N/A   Mostly Cloudy
1:03 AM 57.2 °F 55.4 °F 94% 30.31 in 5.0 mi Calm Calm - N/A   Mostly Cloudy
1:19 AM 57.2 °F 55.4 °F 94% 30.31 in 7.0 mi Calm Calm - N/A   Overcast
1:54 AM 57.9 °F 55.0 °F 90% 30.26 in 8.0 mi SSE 5.8 mph - N/A   Overcast
2:28 AM 59.0 °F 53.6 °F 82% 30.31 in 10.0 mi Calm Calm - N/A   Overcast
2:35 AM 57.2 °F 53.6 °F 88% 30.31 in 10.0 mi South 3.5 mph - N/A   Overcast
2:54 AM 57.9 °F 53.1 °F 84% 30.25 in 10.0 mi Calm Calm - N/A   Mostly Cloudy
3:54 AM 55.9 °F 53.1 °F 90% 30.25 in 8.0 mi Calm Calm - N/A   Scattered Clouds
4:54 AM 55.0 °F 53.1 °F 93% 30.25 in 8.0 mi Calm Calm - N/A   Scattered Clouds
5:10 AM 55.4 °F 53.6 °F 94% 30.29 in 9.0 mi Calm Calm - N/A   Mostly Cloudy
5:54 AM 55.0 °F 53.1 °F 93% 30.25 in 8.0 mi Calm Calm - N/A   Mostly Cloudy
6:54 AM 55.9 °F 54.0 °F 93% 30.26 in 8.0 mi Calm Calm - N/A   Overcast
7:54 AM 55.9 °F 53.1 °F 90% 30.27 in 10.0 mi Calm Calm - N/A   Overcast
8:54 AM 57.0 °F 53.1 °F 87% 30.27 in 10.0 mi Calm Calm - N/A   Overcast
9:54 AM 60.1 °F 52.0 °F 75% 30.27 in 10.0 mi Calm Calm - N/A   Overcast
10:54 AM 62.1 °F 52.0 °F 70% 30.27 in 10.0 mi Calm Calm - N/A   Mostly Cloudy
11:54 AM 66.0 °F 52.0 °F 60% 30.25 in 10.0 mi Variable 4.6 mph - N/A   Partly Cloudy
12:54 PM 68.0 °F 53.1 °F 59% 30.22 in 10.0 mi NW 6.9 mph - N/A   Clear
1:54 PM 71.1 °F 51.1 °F 49% 30.19 in 10.0 mi NNW 9.2 mph - N/A   Partly Cloudy
2:54 PM 71.1 °F 55.0 °F 57% 30.17 in 10.0 mi SE 10.4 mph - N/A   Scattered Clouds
3:54 PM 70.0 °F 55.0 °F 59% 30.17 in 10.0 mi SSE 9.2 mph - N/A   Clear
4:54 PM 70.0 °F 55.0 °F 59% 30.17 in 10.0 mi ESE 6.9 mph - N/A   Clear
5:54 PM 69.1 °F 55.0 °F 61% 30.17 in 10.0 mi SE 8.1 mph - N/A   Clear
6:54 PM 66.0 °F 55.0 °F 68% 30.19 in 10.0 mi SE 5.8 mph - N/A   Clear
7:54 PM 64.0 °F 55.0 °F 73% 30.19 in 10.0 mi Calm Calm - N/A   Clear
8:54 PM 60.1 °F 55.0 °F 83% 30.21 in 10.0 mi Calm Calm - N/A   Clear
9:54 PM 59.0 °F 55.0 °F 87% 30.22 in 10.0 mi Calm Calm - N/A   Clear
10:54 PM 57.9 °F 55.0 °F 90% 30.23 in 8.0 mi Calm Calm - N/A   Clear
11:54 PM 55.9 °F 54.0 °F 93% 30.24 in 8.0 mi Calm Calm - N/A   Clear